Probability
23 23 45 48 39 32 32 39 32 35 42 39 52 45 42 35 35 32 32 32 35 39 32 48 45 42 42 35 35 39 45 52 42 45 48 52 52 52 58 52 42 45 58
16 26 48 42 42 35 32 39 39 39 35 42 39 35 39 35 39 32 32 26 32 26 32 39 35 42 42 39 32 32 39 39 42 42 48 42 45 45 48 48 48 45 55
19 19 42 39 42 42 39 32 29 29 32 23 26 32 32 35 39 32 29 23 23 26 35 35 32 35 32 29 26 29 23 23 29 23 35 26 35 42 48 48 48 48 45
16 13 19 45 35 39 32 29 26 23 26 23 19 26 29 32 32 29 29 32 29 32 29 32 32 26 26 26 26 23 23 16 26 32 16 23 29 45 48 48 45 48 48
13 26 29 39 35 32 29 26 23 26 29 26 23 23 29 29 26 29 26 23 23 26 29 26 35 32 29 26 26 29 23 23 39 26 19 16 26 45 45 45 52 48 45
16 19 23 45 39 29 26 29 29 26 23 23 26 26 23 26 23 23 23 23 23 26 23 23 29 29 26 29 29 35 26 29 16 10 16 16 26 42 48 45 42 39 45
16 19 23 42 39 32 35 35 32 29 26 26 26 23 23 19 19 23 19 26 19 19 16 16 23 26 29 29 29 32 39 35 6 10 13 10 19 42 45 39 35 32 29
13 13 19 42 42 35 35 35 35 29 23 26 16 16 13 19 16 19 16 16 19 16 16 19 23 19 23 29 29 29 35 19 6 10 10 10 29 35 39 42 32 29 26
13 10 13 19 26 35 42 42 39 29 19 10 13 16 19 16 19 23 16 19 19 16 16 16 19 19 23 23 26 23 26 32 3 3 3 10 42 35 32 29 23 26 26
10 10 6 13 10 13 19 32 26 23 13 10 13 16 23 19 16 13 10 16 16 19 19 16 13 13 10 16 19 19 19 10 0 3 3 13 32 26 29 35 23 19 23
13 10 6 6 6 3 10 10 13 13 10 6 10 10 10 6 3 6 10 16 16 13 13 10 13 10 10 10 16 10 3 3 0 3 3 23 29 26 26 26 26 23 19
13 10 6 6 6 3 3 3 3 3 6 3 3 6 10 3 3 3 13 13 13 13 16 16 19 16 10 3 6 6 3 6 0 0 3 26 23 23 19 19 23 19 16
10 10 10 10 6 3 3 3 6 3 3 3 3 6 10 6 3 3 3 3 3 13 10 13 10 3 6 3 3 3 6 3 3 3 0 26 19 19 19 16 16 19 16
10 10 10 10 10 3 3 3 3 3 3 3 3 3 6 3 3 3 3 3 3 3 3 3 3 3 0 3 0 3 3 3 3 3 3 23 23 19 19 16 19 19 23
13 13 10 10 6 3 6 6 6 3 3 3 3 3 3 6 3 3 3 6 6 6 6 6 3 0 0 0 0 0 0 3 0 0 0 10 23 19 16 16 19 16 13
16 16 13 13 10 6 3 3 3 3 3 3 6 3 3 3 3 3 3 3 6 6 6 3 3 0 0 0 0 0 0 0 0 0 0 3 19 16 19 16 13 6 13
16 13 13 13 13 6 6 6 3 6 3 3 3 3 0 0 0 0 3 0 3 3 3 3 0 0 0 0 0 0 0 0 0 3 0 3 3 3 13 6 6 6 16
13 13 13 13 10 6 6 6 6 6 3 6 6 6 0 0 0 0 0 3 3 0 3 3 0 0 0 0 0 0 0 0 0 0 0 0 3 3 3 10 13 10 13
10 16 13 13 6 6 6 10 10 6 10 6 6 6 0 0 0 0 0 0 0 0 0 0 0 0 0 0 0 0 0 0 0 0 0 0 0 0 0 0 6 6 6
10 10 13 13 10 6 10 10 10 10 6 6 3 6 3 0 0 0 0 0 0 0 0 0 0 0 0 0 0 0 0 0 0 0 0 0 0 0 0 0 0 0 6
10 13 10 10 10 10 10 10 10 10 10 6 3 6 6 3 0 0 0 0 0 0 0 0 3 0 0 0 0 0 0 0 0 0 0 0 0 0 0 0 0 0 0
13 10 10 6 10 10 13 10 6 6 10 6 6 3 3 0 0 0 3 3 3 3 3 3 0 0 0 0 0 0 0 0 0 0 0 0 0 0 0 0 0 0 0
16 16 10 13 10 13 13 6 10 6 6 3 6 3 3 3 3 0 0 3 3 3 3 3 3 0 0 0 0 0 0 0 0 0 0 0 0 0 0 0 0 0 0
16 13 16 13 13 13 16 13 10 10 10 6 6 3 6 3 3 0 0 0 3 3 3 3 3 0 0 0 0 0 0 0 0 0 0 0 0 0 0 0 0 0 0
16 16 16 16 16 13 16 16 13 13 10 10 3 3 3 3 3 3 0 0 3 3 3 3 0 0 0 0 0 0 0 0 0 0 0 0 0 0 0 0 0 0 0
10 13 13 13 13 13 6 19 13 16 10 10 6 3 3 3 3 3 3 0 3 3 3 3 3 3 3 0 0 0 0 0 0 0 0 0 0 0 0 0 0 0 0
Height
5876 5875 5874 5873 5872 5871 5868 5867 5867 5868 5870 5870 5870 5870 5869 5869 5869 5868 5868 5868 5868 5868 5868 5868 5868 5868 5868 5867 5867 5867 5867 5867 5867 5867 5867 5868 5868 5868 5868 5869 5869 5869 5870
5875 5874 5874 5873 5871 5869 5867 5866 5866 5867 5868 5869 5869 5869 5869 5868 5868 5868 5867 5867 5867 5867 5867 5867 5867 5867 5867 5867 5867 5866 5866 5866 5866 5867 5867 5867 5867 5867 5868 5868 5868 5868 5868
5874 5873 5873 5872 5871 5869 5867 5866 5866 5867 5868 5868 5868 5868 5868 5867 5867 5867 5866 5866 5866 5866 5866 5866 5866 5866 5866 5866 5866 5866 5866 5866 5866 5866 5866 5866 5866 5866 5866 5866 5866 5866 5866
5873 5873 5872 5872 5871 5870 5868 5867 5867 5867 5868 5868 5867 5867 5866 5865 5865 5865 5865 5865 5865 5865 5865 5865 5865 5865 5865 5865 5865 5865 5865 5865 5865 5865 5865 5865 5865 5865 5865 5865 5865 5864 5863
5872 5872 5871 5871 5870 5870 5869 5868 5867 5867 5867 5867 5866 5865 5864 5863 5862 5863 5863 5864 5864 5864 5864 5864 5864 5864 5864 5863 5863 5864 5863 5864 5863 5863 5863 5864 5864 5864 5864 5863 5863 5863 5862
5871 5870 5870 5870 5869 5869 5868 5868 5867 5866 5866 5865 5865 5863 5860 5858 5859 5861 5862 5862 5862 5862 5862 5862 5863 5863 5862 5862 5862 5862 5862 5862 5862 5862 5862 5863 5862 5862 5862 5862 5862 5861 5860
5869 5869 5868 5868 5868 5868 5867 5867 5866 5866 5865 5864 5863 5862 5859 5857 5857 5859 5861 5861 5861 5861 5861 5861 5861 5861 5861 5861 5861 5861 5861 5861 5861 5861 5861 5861 5861 5861 5861 5860 5860 5860 5859
5868 5867 5867 5867 5866 5866 5866 5865 5865 5864 5864 5863 5862 5861 5860 5858 5858 5859 5859 5859 5860 5860 5860 5860 5860 5860 5860 5860 5860 5860 5860 5860 5860 5860 5860 5860 5860 5860 5859 5859 5859 5859 5858
5866 5865 5865 5865 5865 5864 5864 5864 5863 5863 5862 5861 5861 5860 5859 5859 5858 5858 5858 5858 5858 5858 5859 5859 5859 5859 5859 5858 5858 5858 5858 5858 5858 5858 5858 5858 5858 5858 5858 5858 5858 5858 5858
5864 5864 5863 5863 5863 5863 5862 5862 5861 5861 5860 5860 5859 5858 5858 5857 5857 5857 5857 5857 5857 5857 5857 5857 5857 5857 5857 5857 5857 5857 5857 5857 5857 5857 5857 5857 5857 5857 5857 5856 5856 5856 5856
5862 5862 5862 5861 5861 5861 5860 5860 5859 5859 5858 5858 5857 5857 5856 5856 5856 5855 5855 5855 5855 5855 5855 5855 5856 5856 5856 5856 5856 5856 5856 5855 5855 5856 5856 5855 5855 5855 5855 5855 5855 5855 5855
5861 5860 5860 5859 5859 5859 5858 5858 5857 5856 5856 5856 5855 5855 5854 5854 5854 5853 5853 5853 5853 5853 5853 5854 5854 5854 5854 5854 5854 5854 5854 5854 5854 5854 5854 5854 5854 5854 5853 5853 5853 5853 5853
5858 5858 5857 5857 5856 5856 5856 5855 5855 5854 5853 5853 5852 5852 5852 5852 5852 5851 5851 5851 5851 5851 5852 5852 5852 5852 5853 5853 5853 5853 5852 5852 5852 5853 5852 5852 5852 5852 5852 5852 5852 5851 5851
5856 5855 5855 5855 5854 5854 5853 5853 5852 5851 5851 5850 5850 5849 5849 5849 5849 5849 5849 5850 5850 5850 5850 5850 5850 5851 5851 5851 5851 5851 5851 5851 5851 5851 5851 5851 5851 5851 5851 5850 5850 5850 5850
5853 5853 5852 5852 5852 5851 5851 5850 5849 5848 5848 5847 5846 5846 5846 5846 5847 5847 5847 5847 5848 5848 5848 5848 5849 5849 5849 5849 5849 5849 5850 5850 5849 5849 5849 5849 5849 5849 5849 5849 5849 5848 5848
5851 5850 5850 5850 5849 5849 5848 5847 5846 5845 5845 5844 5844 5843 5843 5843 5844 5845 5845 5845 5846 5846 5846 5847 5847 5847 5847 5847 5847 5848 5848 5848 5848 5847 5847 5847 5847 5847 5847 5847 5846 5846 5846
5848 5848 5847 5847 5846 5846 5845 5844 5844 5843 5842 5842 5841 5841 5841 5841 5841 5842 5843 5843 5844 5844 5844 5845 5845 5845 5845 5845 5846 5846 5846 5846 5846 5845 5845 5845 5845 5845 5845 5844 5844 5844 5843
5845 5845 5845 5844 5843 5843 5842 5842 5841 5840 5840 5839 5839 5838 5838 5838 5838 5839 5840 5841 5841 5842 5843 5843 5843 5844 5844 5844 5844 5844 5844 5844 5844 5843 5843 5843 5843 5843 5843 5842 5842 5841 5841
5842 5842 5842 5841 5841 5840 5840 5839 5838 5838 5837 5837 5836 5836 5836 5836 5836 5836 5837 5838 5839 5840 5840 5841 5841 5842 5842 5842 5842 5842 5842 5842 5842 5842 5841 5841 5840 5840 5840 5840 5839 5838 5838
5840 5840 5839 5839 5838 5838 5837 5837 5836 5835 5835 5834 5834 5834 5834 5834 5834 5834 5835 5835 5837 5838 5838 5839 5839 5839 5840 5840 5840 5840 5840 5840 5840 5839 5839 5839 5838 5838 5837 5837 5836 5836 5835
5838 5837 5836 5836 5836 5835 5835 5834 5834 5833 5833 5832 5832 5832 5832 5832 5832 5832 5832 5833 5835 5835 5836 5836 5837 5837 5838 5838 5838 5838 5838 5837 5837 5837 5836 5836 5836 5835 5834 5834 5834 5833 5833
5835 5835 5834 5834 5833 5832 5832 5831 5831 5831 5830 5830 5830 5830 5830 5830 5830 5830 5830 5831 5832 5833 5833 5834 5834 5835 5835 5835 5836 5836 5836 5836 5835 5834 5834 5833 5833 5832 5831 5831 5831 5830 5830
5832 5832 5831 5831 5830 5830 5829 5828 5828 5828 5827 5827 5827 5827 5827 5827 5827 5827 5828 5829 5830 5830 5831 5831 5832 5832 5833 5833 5833 5833 5833 5833 5832 5832 5831 5830 5830 5829 5829 5828 5828 5827 5826
5829 5829 5828 5828 5828 5827 5826 5826 5825 5825 5825 5824 5824 5824 5824 5824 5824 5825 5826 5827 5827 5828 5828 5829 5829 5829 5830 5830 5830 5829 5830 5829 5829 5829 5828 5828 5827 5826 5826 5825 5825 5824 5823
5826 5826 5825 5825 5825 5824 5824 5823 5823 5822 5822 5822 5821 5821 5822 5822 5822 5822 5823 5824 5825 5825 5826 5826 5826 5827 5827 5827 5827 5827 5827 5826 5826 5826 5826 5825 5825 5824 5823 5822 5822 5821 5820
5823 5823 5822 5822 5822 5821 5821 5820 5819 5819 5819 5819 5819 5819 5819 5819 5819 5820 5821 5821 5822 5823 5823 5823 5824 5824 5824 5824 5824 5824 5824 5824 5823 5823 5823 5822 5822 5821 5821 5820 5819 5818 5818
Wind_Speed
5 5 6 7 7 7 7 6 5 5 5 5 4 4 4 4 5 5 5 5 5 5 5 5 5 5 4 4 4 4 4 4 4 4 4 4 4 4 5 5 5 5 6
6 7 7 8 8 8 6 6 5 5 5 5 4 4 5 5 6 6 6 6 6 6 6 6 5 5 5 5 5 5 5 5 4 5 4 5 5 5 5 6 6 6 7
8 8 8 8 8 7 6 6 5 5 5 5 5 6 6 6 6 6 7 7 7 7 7 6 6 6 5 6 6 6 6 6 5 6 6 5 6 6 7 7 7 7 7
9 9 9 9 8 7 6 6 6 5 6 6 7 7 8 8 8 7 7 7 8 8 7 7 7 7 6 6 6 6 6 6 6 7 7 6 6 7 7 6 7 7 8
10 9 9 9 9 8 7 7 6 6 7 7 8 9 10 9 9 8 7 8 8 7 7 7 7 7 7 7 6 6 7 6 7 7 7 7 6 7 7 6 6 6 7
10 10 10 9 9 8 8 7 7 7 7 7 8 9 10 10 9 8 8 8 8 8 7 7 7 7 6 6 6 6 6 7 7 7 6 6 6 7 7 7 6 6 6
10 10 10 9 9 8 8 8 7 8 8 8 8 9 9 8 7 7 8 7 7 7 6 6 6 6 6 6 6 6 7 7 7 7 7 7 7 7 7 6 6 6 6
10 10 11 10 9 9 9 9 8 8 8 9 9 9 8 7 7 7 8 8 7 7 6 6 7 6 7 6 6 6 7 8 7 7 8 8 7 7 7 7 6 6 6
10 10 10 10 10 10 10 10 10 9 10 10 10 10 9 8 8 9 9 9 8 7 7 7 7 7 7 8 7 6 7 7 7 8 9 8 7 7 7 7 7 7 6
10 10 10 10 10 10 11 11 11 10 11 11 11 10 10 10 9 9 9 9 8 8 8 8 8 8 8 7 7 6 7 7 7 8 8 8 7 7 7 7 7 7 7
10 11 11 11 11 11 11 12 12 12 12 12 11 11 10 10 10 10 10 9 9 9 9 9 9 8 8 8 8 7 7 8 8 7 7 8 8 8 8 8 8 8 7
11 11 11 12 12 12 12 13 13 13 13 13 12 12 11 11 10 10 10 10 10 9 9 9 9 8 8 8 8 7 8 8 8 8 8 7 8 9 9 8 8 8 8
12 12 12 12 13 13 13 14 14 14 14 14 14 13 12 12 11 11 10 10 10 9 9 9 8 8 8 8 7 7 7 8 8 8 8 8 7 8 8 8 7 7 8
13 13 13 13 13 13 14 14 15 15 15 15 14 14 13 12 11 10 10 9 9 9 9 9 9 8 8 7 7 7 7 8 8 8 8 8 8 8 8 8 8 8 8
13 13 14 14 13 14 14 15 15 15 15 15 14 13 12 11 10 10 10 9 9 8 9 9 9 9 9 8 8 8 8 8 8 9 9 8 8 8 9 9 9 8 8
13 14 14 14 14 14 14 14 14 14 14 14 14 12 11 10 10 10 9 9 8 8 8 8 8 8 8 8 9 9 9 9 9 9 9 9 8 8 9 9 9 9 9
13 13 14 14 14 14 14 13 13 13 13 13 12 11 10 9 9 9 9 9 9 8 8 8 8 8 8 8 9 9 9 9 9 9 9 9 9 9 10 10 10 10 9
14 14 14 14 14 14 14 14 13 13 13 13 12 10 9 9 9 9 9 9 9 9 8 9 9 8 8 8 8 8 8 8 8 9 9 10 10 10 10 11 11 11 10
13 13 13 13 13 13 14 14 14 14 13 12 11 10 10 9 9 9 10 10 9 9 9 9 9 9 9 9 9 9 8 9 9 9 9 10 10 10 10 11 11 11 11
13 14 13 13 13 13 13 13 13 13 12 12 11 10 10 10 10 10 10 10 10 9 9 10 10 10 10 10 10 9 9 9 9 10 10 10 11 11 11 11 11 11 11
14 14 14 14 14 14 13 13 12 12 12 12 12 11 11 11 11 10 10 10 11 10 10 10 11 10 11 10 10 10 10 10 10 11 11 11 11 12 12 12 12 11 11
14 14 14 14 14 13 13 13 13 13 13 12 12 12 12 11 11 10 10 10 10 10 10 10 10 11 11 11 12 12 11 11 11 11 11 12 11 11 11 11 11 11 11
14 14 14 14 14 14 13 13 13 13 13 12 12 12 12 12 12 11 10 11 11 11 11 11 11 12 12 12 12 12 11 11 11 11 12 12 11 11 11 11 11 11 11
14 14 15 14 14 14 13 13 13 13 12 12 13 13 12 12 11 11 11 11 10 11 11 11 11 12 12 12 12 11 11 11 11 11 12 12 11 11 11 11 11 11 12
14 15 15 15 14 14 13 13 14 14 13 13 13 13 13 13 12 11 10 10 10 10 11 11 11 11 12 11 11 11 11 11 11 11 11 10 10 10 11 11 11 11 12
15 15 15 15 14 14 14 14 14 14 13 13 13 13 14 13 13 12 11 11 11 11 11 11 11 11 11 11 11 11 11 11 11 11 11 10 10 10 11 11 11 11 11
Wind_Direction
296 300 307 311 312 316 314 308 300 295 300 306 303 301 306 303 295 293 292 287 285 281 273 275 280 289 291 286 286 278 275 277 273 274 267 264 269 270 267 259 255 257 258
290 292 300 306 312 318 315 310 298 293 295 299 296 298 303 304 303 299 295 294 286 282 278 275 273 279 289 280 275 270 268 275 279 276 271 269 266 269 269 271 267 268 268
288 291 296 301 308 317 319 312 301 292 291 293 298 299 300 299 299 297 294 292 286 284 281 275 271 272 282 275 272 272 269 270 273 275 279 276 269 271 273 274 268 271 274
289 291 296 298 303 309 310 309 302 294 289 294 300 300 299 294 292 292 291 291 287 284 281 276 273 272 278 275 273 272 269 267 266 268 269 276 275 272 274 274 272 278 280
288 288 291 294 298 302 303 303 299 295 293 296 300 302 298 292 290 288 288 289 289 289 284 277 273 275 277 270 267 271 268 263 264 265 268 275 276 277 275 274 275 283 290
288 286 288 291 294 298 302 301 298 296 296 301 303 305 305 298 288 284 284 283 288 289 284 274 271 277 284 276 268 272 271 265 264 269 273 276 279 280 277 274 277 285 294
287 286 285 288 290 295 299 300 301 301 300 299 304 308 312 305 290 282 283 286 287 286 282 272 268 275 280 278 268 271 276 271 271 273 272 277 279 280 280 277 276 281 286
284 285 282 283 287 290 293 294 295 298 298 299 303 305 306 301 290 285 287 287 285 282 275 267 266 272 275 277 274 266 270 277 275 274 273 274 273 275 279 280 278 278 279
283 283 282 282 285 288 290 292 296 297 297 299 301 301 299 295 290 287 287 285 282 279 277 272 268 270 274 273 276 271 266 274 279 275 273 272 271 270 274 280 280 282 277
283 283 283 283 285 287 290 292 293 295 297 295 295 295 294 291 286 285 285 284 279 277 274 271 270 272 273 271 271 277 276 273 276 279 275 270 267 268 272 278 278 282 280
281 283 285 284 286 288 289 291 291 292 295 293 292 290 289 289 285 283 284 283 279 276 272 268 268 271 272 271 271 272 277 278 275 276 276 271 266 271 272 274 279 283 282
283 284 283 283 285 288 289 291 290 290 292 291 290 289 287 286 286 284 281 278 275 274 274 270 267 267 272 273 276 279 279 280 277 278 277 275 275 275 275 274 279 280 279
281 282 283 284 286 290 291 291 290 292 292 291 290 288 289 285 282 282 278 275 273 271 272 271 269 273 278 277 281 283 284 284 283 286 280 277 281 284 282 281 287 280 279
281 281 283 284 287 290 291 291 291 292 294 291 291 288 287 283 278 280 279 279 278 277 275 277 277 280 281 283 287 288 286 287 283 286 283 277 280 286 293 297 290 284 283
283 282 282 283 286 289 291 291 292 292 292 289 290 286 284 278 275 273 274 273 275 276 277 278 280 280 277 278 282 285 285 283 285 290 283 282 283 289 292 291 290 288 284
282 283 284 284 287 290 292 292 292 292 293 290 289 285 280 274 271 268 267 266 268 272 274 274 274 276 274 275 278 281 280 282 283 290 288 285 278 283 288 290 290 289 279
281 283 284 285 288 290 290 290 290 290 293 290 287 285 281 274 268 266 268 266 266 268 271 271 274 277 279 280 283 285 282 285 285 288 289 284 278 279 282 284 285 282 280
283 284 287 288 288 287 287 287 288 289 288 285 285 282 280 279 273 269 268 266 266 268 270 270 273 276 281 284 287 287 286 289 290 289 289 288 285 282 283 285 283 283 281
285 287 288 289 289 287 287 286 286 287 286 284 283 279 279 280 281 277 268 267 269 268 269 269 270 274 278 281 284 286 288 288 290 289 294 296 292 289 287 287 285 284 285
284 286 289 288 287 287 286 287 287 287 285 284 282 277 277 278 280 280 274 268 267 270 271 269 270 275 279 282 283 285 287 288 289 290 293 294 293 292 289 288 285 284 284
283 286 291 291 289 287 285 286 287 288 287 287 282 276 279 277 276 279 277 268 266 268 270 270 273 274 276 278 281 285 288 288 289 290 292 292 292 292 289 288 285 284 285
282 285 286 290 288 286 284 281 284 287 285 286 280 276 277 276 276 279 277 272 272 271 272 270 272 274 276 277 279 281 284 285 288 289 292 292 291 291 291 290 286 286 285
281 283 286 286 288 285 285 285 287 286 284 283 279 277 277 274 275 276 276 273 273 276 275 274 273 274 276 279 278 279 283 286 288 289 291 292 293 294 293 291 288 289 288
280 282 283 283 286 285 283 282 284 283 282 281 278 278 278 277 278 277 272 272 273 276 277 276 276 276 277 279 279 279 281 286 288 289 291 292 292 292 294 292 290 291 293
279 282 282 282 284 283 283 281 281 280 279 278 277 277 276 277 277 275 273 273 274 277 280 283 283 280 279 278 279 280 282 285 288 290 293 294 293 294 296 295 292 291 294
280 279 281 282 282 284 283 279 277 278 277 276 277 278 278 277 275 273 274 276 276 278 281 284 286 281 278 277 280 281 283 286 289 291 291 293 293 294 296 297 296 294 295